Orbital Elements at Epoch 2459200.5 (2020-Dec-17.0) TDB
Reference: JPL 16 (heliocentric ecliptic J2000)
Element | Value | Uncertainty (1-sigma) | Units |
e | .1886879806673448 | 3.8765e-08 | |
a | 2.350139153522607 | 1.032e-08 | au |
q | 1.906696142357164 | 9.5689e-08 | au |
i | 3.716936275252316 | 4.0806e-06 | deg |
node | 346.4000224764532 | 5.4324e-05 | deg |
peri | 335.1927865584847 | 5.5352e-05 | deg |
M | 338.7811002380047 | 1.0158e-05 | deg |
tp | 2459278.063813637880 (2021-Mar-04.56381364) | 3.7248e-05 | TDB |
period | 1315.948198202482 3.60 | 8.6682e-06 2.373e-08 | d yr |
n | .2735669994394472 | 1.802e-09 | deg/d |
Q | 2.793582164688051 | 1.2268e-08 | au |
|
| | Orbit Determination Parameters
Additional Information
|